カタログに戻る

SL-18 R/B

運用中LEO
NORAD 22562·ROCKET BODY·🇷🇺 Russia

打ち上げ Mar 25, 1993 から Plesetsk Cosmodrome

Loading…

次のパス (今後24時間)

TLE

最新Source: Space-Track

元期: Sep 14, 2026, 07:09 UTC

1 22562U 93014B   26257.29830346  .00000102  00000-0  38619-4 0  9995
2 22562  75.7631  22.2550 0161995  30.9729 330.0860 14.30645405744574

AllMySatでSL-18 R/Bをリアルタイム追跡

Download on the App Store